| time (UTC) | temp F | wind direction | speed MPH | gust MPH | rain 1hr in | rain 24hr in | rain mn in | humidity % | barometer mb |
| 20260509033603 | 66 | 254 | 2.0 | 10.0 | 0.00 | 0.31 | 0.28 | 74 | 1001.8 |
| 20260509032917 | 66 | 277 | 2.0 | 4.0 | 0.00 | 0.31 | 0.28 | 74 | 1001.8 |
| 20260509031803 | 67 | 276 | 3.0 | 11.0 | 0.00 | 0.31 | 0.28 | 74 | 1001.8 |
| 20260509030903 | 68 | 270 | 3.0 | 8.0 | 0.00 | 0.31 | 0.28 | 71 | 1001.7 |
| 20260509030003 | 68 | 292 | 3.0 | 8.0 | 0.00 | 0.31 | 0.28 | 71 | 1001.8 |
| 20260509025617 | 68 | 313 | 3.0 | 8.0 | 0.00 | 0.31 | 0.28 | 70 | 1001.9 |
| 20260509024503 | 68 | 253 | 5.0 | 10.0 | 0.00 | 0.31 | 0.28 | 71 | 1002.0 |
| 20260509023603 | 69 | 254 | 4.0 | 11.0 | 0.00 | 0.31 | 0.28 | 68 | 1002.0 |
| 20260509022703 | 69 | 307 | 4.0 | 10.0 | 0.00 | 0.31 | 0.28 | 69 | 1002.0 |
| 20260509021803 | 69 | 308 | 5.0 | 11.0 | 0.00 | 0.31 | 0.28 | 69 | 1002.1 |
| 20260509020903 | 68 | 291 | 4.0 | 12.0 | 0.00 | 0.31 | 0.28 | 68 | 1002.2 |
| 20260509020003 | 68 | 317 | 4.0 | 10.0 | 0.00 | 0.31 | 0.28 | 71 | 1002.3 |
| 20260509015618 | 67 | 310 | 4.0 | 10.0 | 0.00 | 0.31 | 0.28 | 72 | 1002.3 |
| 20260509014503 | 68 | 263 | 4.0 | 10.0 | 0.00 | 0.31 | 0.28 | 70 | 1002.3 |
| 20260509013603 | 68 | 304 | 3.0 | 11.0 | 0.00 | 0.31 | 0.28 | 69 | 1002.5 |
| 20260509012703 | 68 | 271 | 4.0 | 10.0 | 0.00 | 0.31 | 0.28 | 74 | 1002.6 |
| 20260509011803 | 66 | 259 | 6.0 | 11.0 | 0.00 | 0.31 | 0.28 | 73 | 1002.7 |
| 20260509010903 | 65 | 260 | 7.0 | 14.0 | 0.00 | 0.31 | 0.28 | 75 | 1002.9 |
| 20260509010003 | 67 | 255 | 6.0 | 16.0 | 0.00 | 0.31 | 0.28 | 71 | 1003.1 |
| 20260509005618 | 68 | 251 | 6.0 | 15.0 | 0.00 | 0.32 | 0.28 | 70 | 1003.1 |
| 20260509004503 | 69 | 267 | 3.0 | 14.0 | 0.00 | 0.38 | 0.28 | 71 | 1002.9 |
| 20260509003603 | 68 | 291 | 4.0 | 9.0 | 0.00 | 0.39 | 0.28 | 75 | 1003.1 |
| 20260509002704 | 68 | 254 | 5.0 | 10.0 | 0.00 | 0.39 | 0.28 | 72 | 1003.4 |
| 20260509001803 | 68 | 262 | 3.0 | 11.0 | 0.00 | 0.39 | 0.28 | 73 | 1003.6 |
| 20260509000903 | 67 | 242 | 3.0 | 9.0 | 0.00 | 0.39 | 0.28 | 78 | 1003.7 |
| 20260509000003 | 66 | 238 | 5.0 | 8.0 | 0.00 | 0.39 | 0.28 | 79 | 1003.9 |
| 20260508235403 | 67 | 245 | 6.0 | 18.0 | 0.00 | 0.39 | 0.28 | 77 | 1004.1 |
| 20260508234503 | 68 | 255 | 4.0 | 11.0 | 0.00 | 0.39 | 0.28 | 75 | 1004.1 |
| 20260508233603 | 68 | 268 | 4.0 | 13.0 | 0.00 | 0.39 | 0.28 | 74 | 1004.1 |
| 20260508232918 | 68 | 260 | 2.0 | 10.0 | 0.00 | 0.39 | 0.28 | 76 | 1004.2 |
| 20260508231803 | 67 | 290 | 3.0 | 10.0 | 0.00 | 0.39 | 0.28 | 80 | 1004.4 |
| 20260508230903 | 67 | 326 | 3.0 | 9.0 | 0.00 | 0.39 | 0.28 | 77 | 1004.5 |
| 20260508230004 | 67 | 312 | 2.0 | 8.0 | 0.00 | 0.39 | 0.28 | 78 | 1004.7 |
| 20260508225403 | 67 | 288 | 2.0 | 8.0 | 0.00 | 0.39 | 0.28 | 79 | 1004.7 |
| 20260508224503 | 66 | 309 | 2.0 | 6.0 | 0.00 | 0.39 | 0.28 | 81 | 1004.8 |
| 20260508223603 | 67 | 313 | 0.0 | 5.0 | 0.00 | 0.39 | 0.28 | 80 | 1004.8 |
| 20260508222704 | 66 | 315 | 0.0 | 3.0 | 0.00 | 0.39 | 0.28 | 85 | 1004.9 |
| 20260508221804 | 66 | 338 | 0.0 | 5.0 | 0.00 | 0.39 | 0.28 | 84 | 1005.0 |
| 20260508220903 | 65 | 358 | 1.0 | 4.0 | 0.00 | 0.39 | 0.28 | 86 | 1005.1 |
| 20260508220004 | 65 | 0 | 0.0 | 5.0 | 0.00 | 0.39 | 0.28 | 87 | 1005.0 |
| 20260508215619 | 64 | 18 | 0.0 | 3.0 | 0.00 | 0.39 | 0.28 | 87 | 1005.1 |
| 20260508214503 | 64 | 35 | 1.0 | 3.0 | 0.00 | 0.39 | 0.28 | 90 | 1005.1 |
| 20260508213817 | 63 | 347 | 1.0 | 4.0 | 0.00 | 0.39 | 0.28 | 91 | 1005.2 |
| 20260508212703 | 63 | 345 | 1.0 | 3.0 | 0.00 | 0.39 | 0.28 | 94 | 1005.1 |
| 20260508211803 | 62 | 313 | 1.0 | 4.0 | 0.00 | 0.40 | 0.28 | 94 | 1005.2 |
| 20260508211117 | 62 | 303 | 0.0 | 3.0 | 0.00 | 0.40 | 0.28 | 94 | 1005.3 |
| 20260508210217 | 61 | 0 | 0.0 | 3.0 | 0.00 | 0.40 | 0.28 | 94 | 1005.3 |
| 20260508205403 | 61 | 0 | 0.0 | 0.0 | 0.00 | 0.40 | 0.28 | 94 | 1005.3 |
| 20260508204718 | 61 | 0 | 0.0 | 0.0 | 0.00 | 0.40 | 0.28 | 94 | 1005.2 |
| 20260508203603 | 60 | 0 | 0.0 | 0.0 | 0.00 | 0.40 | 0.28 | 94 | 1005.3 |
| 20260508202918 | 60 | 0 | 0.0 | 0.0 | 0.00 | 0.40 | 0.28 | 94 | 1005.1 |
| 20260508201803 | 59 | 0 | 0.0 | 0.0 | 0.00 | 0.40 | 0.28 | 94 | 1005.3 |
| 20260508201117 | 59 | 0 | 0.0 | 1.0 | 0.00 | 0.40 | 0.28 | 94 | 1005.2 |
| 20260508200218 | 58 | 0 | 0.0 | 1.0 | 0.00 | 0.40 | 0.28 | 94 | 1005.2 |
| 20260508195403 | 58 | 0 | 0.0 | 0.0 | 0.00 | 0.40 | 0.28 | 93 | 1005.1 |
| 20260508194717 | 58 | 0 | 0.0 | 1.0 | 0.00 | 0.40 | 0.28 | 93 | 1005.1 |
| 20260508193603 | 57 | 260 | 0.0 | 2.0 | 0.00 | 0.40 | 0.28 | 93 | 1005.0 |
| 20260508192918 | 57 | 185 | 1.0 | 4.0 | 0.00 | 0.40 | 0.28 | 93 | 1004.9 |
| 20260508191803 | 57 | 0 | 0.0 | 2.0 | 0.00 | 0.40 | 0.28 | 92 | 1005.0 |
| 20260508191116 | 58 | 0 | 0.0 | 2.0 | 0.00 | 0.40 | 0.28 | 92 | 1004.9 |
| 20260508190003 | 58 | 0 | 0.0 | 1.0 | 0.00 | 0.40 | 0.28 | 92 | 1004.8 |
| 20260508185617 | 58 | 0 | 0.0 | 1.0 | 0.00 | 0.40 | 0.28 | 92 | 1004.8 |
| 20260508184717 | 58 | 0 | 0.0 | 1.0 | 0.00 | 0.40 | 0.28 | 93 | 1004.8 |
| 20260508183603 | 59 | 0 | 0.0 | 1.0 | 0.00 | 0.40 | 0.28 | 93 | 1004.8 |
| 20260508182703 | 59 | 0 | 0.0 | 2.0 | 0.00 | 0.40 | 0.28 | 93 | 1004.8 |
| 20260508181803 | 59 | 261 | 0.0 | 3.0 | 0.00 | 0.40 | 0.28 | 93 | 1004.8 |
| 20260508180903 | 59 | 0 | 1.0 | 0.0 | 0.00 | 0.40 | 0.28 | 93 | 1004.8 |
| 20260508180003 | 59 | 262 | 0.0 | 3.0 | 0.00 | 0.40 | 0.28 | 93 | 1004.9 |
| 20260508175403 | 59 | 0 | 0.0 | 0.0 | 0.00 | 0.40 | 0.28 | 93 | 1004.9 |
| 20260508174503 | 59 | 0 | 0.0 | 0.0 | 0.00 | 0.40 | 0.28 | 93 | 1004.9 |
| 20260508173603 | 60 | 0 | 0.0 | 0.0 | 0.01 | 0.40 | 0.28 | 93 | 1004.8 |
| 20260508172703 | 60 | 0 | 0.0 | 0.0 | 0.01 | 0.40 | 0.28 | 93 | 1004.8 |
| 20260508171803 | 59 | 0 | 0.0 | 0.0 | 0.01 | 0.40 | 0.28 | 93 | 1004.7 |
| 20260508170903 | 59 | 0 | 0.0 | 1.0 | 0.01 | 0.40 | 0.28 | 93 | 1004.6 |
| 20260508170217 | 59 | 0 | 0.0 | 1.0 | 0.01 | 0.40 | 0.28 | 93 | 1004.4 |
| 20260508165403 | 59 | 0 | 0.0 | 1.0 | 0.01 | 0.40 | 0.28 | 93 | 1004.3 |
| 20260508164503 | 59 | 0 | 0.0 | 3.0 | 0.01 | 0.40 | 0.28 | 93 | 1004.1 |
| 20260508163603 | 60 | 0 | 0.0 | 2.0 | 0.00 | 0.39 | 0.28 | 93 | 1004.1 |
| 20260508162917 | 60 | 0 | 0.0 | 2.0 | 0.01 | 0.39 | 0.28 | 93 | 1004.2 |
| 20260508161803 | 60 | 0 | 0.0 | 2.0 | 0.01 | 0.39 | 0.28 | 92 | 1004.4 |
| 20260508160903 | 60 | 0 | 0.0 | 1.0 | 0.02 | 0.39 | 0.28 | 92 | 1004.6 |
| 20260508160004 | 60 | 0 | 0.0 | 1.0 | 0.04 | 0.39 | 0.28 | 92 | 1004.4 |
| 20260508155403 | 60 | 0 | 0.0 | 2.0 | 0.04 | 0.39 | 0.28 | 92 | 1004.5 |
| 20260508154503 | 60 | 0 | 0.0 | 2.0 | 0.04 | 0.39 | 0.28 | 92 | 1004.5 |
| 20260508153603 | 60 | 0 | 0.0 | 1.0 | 0.04 | 0.39 | 0.28 | 92 | 1005.0 |
| 20260508152703 | 60 | 0 | 0.0 | 0.0 | 0.04 | 0.39 | 0.27 | 92 | 1005.3 |
| 20260508151803 | 60 | 271 | 0.0 | 1.0 | 0.05 | 0.39 | 0.27 | 92 | 1005.3 |
| 20260508151117 | 60 | 271 | 1.0 | 1.0 | 0.10 | 0.38 | 0.26 | 92 | 1005.4 |
| 20260508150218 | 60 | 242 | 1.0 | 4.0 | 0.22 | 0.35 | 0.24 | 91 | 1005.5 |
| 20260508145403 | 61 | 221 | 1.0 | 4.0 | 0.23 | 0.35 | 0.24 | 92 | 1005.2 |
| 20260508144503 | 61 | 228 | 2.0 | 9.0 | 0.24 | 0.35 | 0.24 | 91 | 1005.5 |
| 20260508143603 | 61 | 250 | 4.0 | 9.0 | 0.24 | 0.35 | 0.24 | 91 | 1005.6 |
| 20260508142918 | 62 | 262 | 4.0 | 12.0 | 0.23 | 0.35 | 0.23 | 91 | 1005.6 |
| 20260508141803 | 63 | 311 | 7.0 | 11.0 | 0.22 | 0.34 | 0.22 | 92 | 1005.8 |
| 20260508140903 | 64 | 359 | 7.0 | 25.0 | 0.13 | 0.25 | 0.13 | 91 | 1005.6 |
| 20260508140004 | 65 | 7 | 6.0 | 17.0 | 0.02 | 0.13 | 0.02 | 92 | 1005.1 |
| 20260508135403 | 66 | 13 | 6.0 | 15.0 | 0.01 | 0.13 | 0.01 | 92 | 1005.3 |
| 20260508134503 | 66 | 12 | 6.0 | 17.0 | 0.00 | 0.12 | 0.00 | 91 | 1005.3 |
| 20260508133603 | 66 | 8 | 6.0 | 19.0 | 0.00 | 0.12 | 0.00 | 91 | 1005.6 |
| 20260508132703 | 66 | 13 | 7.0 | 20.0 | 0.00 | 0.12 | 0.00 | 90 | 1005.7 |
| 20260508132017 | 66 | 11 | 6.0 | 16.0 | 0.00 | 0.12 | 0.00 | 90 | 1005.8 |
| 20260508130903 | 66 | 16 | 4.0 | 19.0 | 0.00 | 0.13 | 0.00 | 90 | 1006.0 |
| 20260508130004 | 66 | 16 | 4.0 | 15.0 | 0.00 | 0.17 | 0.00 | 90 | 1005.9 |
| 20260508125617 | 66 | 14 | 4.0 | 13.0 | 0.00 | 0.17 | 0.00 | 90 | 1005.9 |
| 20260508124717 | 66 | 22 | 4.0 | 13.0 | 0.00 | 0.17 | 0.00 | 90 | 1006.0 |
| 20260508123603 | 66 | 20 | 4.0 | 13.0 | 0.00 | 0.17 | 0.00 | 90 | 1006.1 |
| 20260508122703 | 66 | 21 | 4.0 | 13.0 | 0.00 | 0.17 | 0.00 | 90 | 1006.2 |
| 20260508121803 | 66 | 13 | 3.0 | 13.0 | 0.00 | 0.17 | 0.00 | 90 | 1006.6 |
| 20260508120903 | 66 | 18 | 3.0 | 11.0 | 0.00 | 0.17 | 0.00 | 90 | 1006.8 |
| 20260508120217 | 66 | 16 | 3.0 | 10.0 | 0.00 | 0.17 | 0.00 | 90 | 1007.0 |
| 20260508115403 | 66 | 10 | 4.0 | 10.0 | 0.00 | 0.17 | 0.17 | 90 | 1007.2 |
| 20260508114503 | 66 | 2 | 3.0 | 11.0 | 0.01 | 0.17 | 0.17 | 90 | 1007.4 |
| 20260508113603 | 66 | 6 | 3.0 | 10.0 | 0.01 | 0.17 | 0.17 | 90 | 1007.5 |
| 20260508112703 | 66 | 15 | 4.0 | 11.0 | 0.01 | 0.17 | 0.17 | 90 | 1007.5 |
| 20260508112018 | 66 | 14 | 4.0 | 10.0 | 0.01 | 0.17 | 0.17 | 90 | 1007.6 |
| 20260508110903 | 65 | 18 | 5.0 | 13.0 | 0.01 | 0.17 | 0.17 | 90 | 1007.9 |
| 20260508110004 | 65 | 8 | 4.0 | 15.0 | 0.01 | 0.17 | 0.17 | 90 | 1008.2 |
| 20260508105403 | 65 | 4 | 3.0 | 15.0 | 0.01 | 0.17 | 0.17 | 90 | 1008.3 |
| 20260508104503 | 65 | 1 | 3.0 | 11.0 | 0.00 | 0.17 | 0.17 | 90 | 1008.2 |
| 20260508103603 | 65 | 7 | 3.0 | 12.0 | 0.00 | 0.17 | 0.17 | 90 | 1008.8 |
| 20260508102703 | 65 | 356 | 4.0 | 18.0 | 0.00 | 0.17 | 0.17 | 90 | 1008.9 |
| 20260508101803 | 65 | 20 | 4.0 | 14.0 | 0.00 | 0.17 | 0.17 | 90 | 1009.0 |
| 20260508100903 | 65 | 35 | 4.0 | 15.0 | 0.00 | 0.17 | 0.17 | 90 | 1009.2 |
| 20260508100004 | 65 | 39 | 3.0 | 14.0 | 0.00 | 0.17 | 0.17 | 90 | 1009.2 |
| 20260508095403 | 65 | 37 | 4.0 | 10.0 | 0.00 | 0.17 | 0.17 | 90 | 1009.3 |
| 20260508094503 | 65 | 28 | 4.0 | 12.0 | 0.00 | 0.17 | 0.17 | 90 | 1009.5 |
| 20260508093604 | 65 | 39 | 4.0 | 12.0 | 0.00 | 0.17 | 0.17 | 90 | 1009.5 |
| 20260508092918 | 65 | 37 | 4.0 | 9.0 | 0.00 | 0.17 | 0.17 | 90 | 1009.6 |
| 20260508091803 | 65 | 40 | 4.0 | 12.0 | 0.00 | 0.17 | 0.17 | 90 | 1009.7 |
| 20260508090903 | 65 | 34 | 5.0 | 13.0 | 0.00 | 0.17 | 0.17 | 90 | 1009.8 |
| 20260508090003 | 65 | 38 | 6.0 | 16.0 | 0.00 | 0.17 | 0.17 | 90 | 1009.9 |
| 20260508085403 | 65 | 42 | 4.0 | 16.0 | 0.00 | 0.17 | 0.17 | 91 | 1009.9 |
| 20260508084504 | 65 | 31 | 3.0 | 16.0 | 0.00 | 0.17 | 0.17 | 91 | 1010.1 |
| 20260508083603 | 64 | 18 | 2.0 | 9.0 | 0.00 | 0.17 | 0.17 | 91 | 1010.3 |
| 20260508082703 | 64 | 26 | 2.0 | 7.0 | 0.00 | 0.17 | 0.17 | 91 | 1010.3 |
| 20260508081803 | 64 | 20 | 3.0 | 9.0 | 0.00 | 0.17 | 0.17 | 91 | 1010.2 |
| 20260508080903 | 64 | 31 | 4.0 | 13.0 | 0.00 | 0.17 | 0.17 | 91 | 1010.3 |
| 20260508080003 | 64 | 31 | 4.0 | 12.0 | 0.00 | 0.17 | 0.17 | 91 | 1010.2 |
| 20260508075404 | 64 | 19 | 6.0 | 12.0 | 0.01 | 0.17 | 0.17 | 91 | 1010.3 |
| 20260508074503 | 64 | 33 | 5.0 | 15.0 | 0.01 | 0.17 | 0.17 | 90 | 1010.4 |
| 20260508073604 | 64 | 38 | 3.0 | 13.0 | 0.02 | 0.17 | 0.17 | 91 | 1010.5 |
| 20260508072704 | 64 | 42 | 3.0 | 8.0 | 0.02 | 0.17 | 0.17 | 91 | 1010.4 |
| 20260508071803 | 64 | 37 | 4.0 | 12.0 | 0.02 | 0.17 | 0.17 | 91 | 1010.6 |
| 20260508070903 | 64 | 21 | 3.0 | 12.0 | 0.02 | 0.17 | 0.17 | 90 | 1010.8 |
| 20260508070003 | 64 | 12 | 3.0 | 11.0 | 0.02 | 0.17 | 0.17 | 90 | 1010.9 |
| 20260508065618 | 64 | 9 | 4.0 | 11.0 | 0.02 | 0.17 | 0.17 | 90 | 1010.7 |
| 20260508064503 | 65 | 25 | 4.0 | 16.0 | 0.01 | 0.16 | 0.16 | 89 | 1011.1 |
| 20260508063603 | 65 | 32 | 4.0 | 11.0 | 0.00 | 0.15 | 0.15 | 87 | 1010.8 |
| 20260508062919 | 66 | 29 | 3.0 | 11.0 | 0.00 | 0.15 | 0.15 | 87 | 1011.0 |
| 20260508061803 | 65 | 26 | 4.0 | 11.0 | 0.00 | 0.15 | 0.15 | 88 | 1011.2 |
| 20260508060903 | 65 | 24 | 3.0 | 11.0 | 0.00 | 0.15 | 0.15 | 88 | 1011.4 |
| 20260508060004 | 65 | 29 | 2.0 | 9.0 | 0.00 | 0.15 | 0.15 | 88 | 1011.5 |
| 20260508055403 | 65 | 15 | 2.0 | 9.0 | 0.00 | 0.15 | 0.15 | 88 | 1011.7 |
| 20260508054718 | 65 | 27 | 3.0 | 9.0 | 0.00 | 0.15 | 0.15 | 87 | 1011.7 |
| 20260508053817 | 65 | 27 | 3.0 | 11.0 | 0.00 | 0.15 | 0.15 | 87 | 1011.7 |
| 20260508052917 | 65 | 32 | 2.0 | 12.0 | 0.00 | 0.15 | 0.15 | 87 | 1011.9 |
| 20260508051803 | 65 | 32 | 3.0 | 10.0 | 0.00 | 0.15 | 0.15 | 88 | 1012.1 |
| 20260508050903 | 65 | 45 | 2.0 | 9.0 | 0.00 | 0.15 | 0.15 | 88 | 1012.1 |
| 20260508050004 | 65 | 28 | 2.0 | 8.0 | 0.00 | 0.15 | 0.15 | 88 | 1012.3 |
| 20260508045618 | 65 | 26 | 2.0 | 10.0 | 0.00 | 0.15 | 0.15 | 88 | 1012.4 |
| 20260508044503 | 65 | 36 | 3.0 | 9.0 | 0.00 | 0.15 | 0.15 | 88 | 1012.4 |
| 20260508043603 | 65 | 50 | 4.0 | 13.0 | 0.00 | 0.15 | 0.15 | 88 | 1012.4 |
| 20260508042703 | 65 | 44 | 4.0 | 11.0 | 0.00 | 0.15 | 0.15 | 88 | 1012.4 |
| 20260508041803 | 65 | 39 | 3.0 | 10.0 | 0.00 | 0.15 | 0.15 | 88 | 1012.4 |
| 20260508040903 | 65 | 35 | 2.0 | 9.0 | 0.00 | 0.15 | 0.15 | 88 | 1012.6 |
| 20260508040004 | 65 | 36 | 3.0 | 8.0 | 0.00 | 0.15 | 0.15 | 87 | 1012.8 |
| 20260508035403 | 65 | 44 | 3.0 | 9.0 | 0.00 | 0.15 | 0.15 | 87 | 1012.7 |
| 20260508034503 | 65 | 43 | 3.0 | 10.0 | 0.01 | 0.15 | 0.15 | 87 | 1012.8 |